Voltar ao catálogo

SHERPA-AC1

AtivoCiênciaSSO
NORAD 52763·PAYLOAD·🇺🇸 United States

Lançado May 25, 2022 de Cape Canaveral Space Force Station

Loading…

Próximas Passagens (próximas 24 horas)

TLE

AtualizadoSource: Space-Track

Época: Sep 14, 2026, 09:35 UTC

1 52763U 22057AH  26257.39954510  .00006405  00000-0  17716-3 0  9997
2 52763  97.6813  50.4893 0008429 128.1001 232.1004 15.37363217239402

Acompanhe SHERPA-AC1 em tempo real com AllMySat

Download on the App Store